Sidney, NE

7:59 PM MDT on May 27, 2018 (GMT -0600)
Sidney Municipal

Weather History for KSNY - November, 2012

Change the Weather History Date:

Friday, November 30, 2012

  Actual Average Record
Temperature  
Mean Temperature 43 °F 31 °F  
Max Temperature 61 °F 44 °F 67 °F (1999)
Min Temperature 24 °F 19 °F -8 °F (1985)
Degree Days  
Heating Degree Days 22 34  
Month to date heating degree days 738 821  
Since 1 July heating degree days 1408 1422  
Cooling Degree Days 0 0  
Month to date cooling degree days 0 0  
Year to date cooling degree days 1165 830  
Moisture  
Dew Point 21 °F    
Average Humidity 48    
Maximum Humidity 75    
Minimum Humidity 20    
Precipitation  
Precipitation 0.00 in 0.02 in 0.10 in (1985)
Month to date precipitation 0.04 0.57  
Year to date precipitation 7.02 18.00  
Sea Level Pressure  
Sea Level Pressure 29.96 in    
Wind  
Wind Speed 9 mph (SW)    
Max Wind Speed 21 mph    
Max Gust Speed 25 mph    
Visibility 10 miles    
Events      
T = Trace of Precipitation, MM = Missing Value Source: NWS Daily Summary

Daily Weather History Graph

Daily Weather History Graph

Search for Another Location

Airport or City:

Astronomy

Nov. 30, 2012 Rise Set
Actual Time 6:57 AM MST 4:24 PM MST
Civil Twilight 6:26 AM MST 4:54 PM MST
Nautical Twilight 5:52 AM MST 5:29 PM MST
Astronomical Twilight 5:19 AM MST 6:02 PM MST
Moon 6:21 PM MST (11/30) 8:30 AM MST (11/30)
Length of Visible Light 10h 28m
Length of Day
9h 26m
Waning Gibbous, 96% of the Moon is Illuminated
Nov 30
Waning Gibbous
Dec 6
Last Quarter
Dec 13
New
Dec 19
First Quarter
Dec 28
Full

Hourly Weather History & Observations

Time (MST) Temp. Windchill Dew Point Humidity Pressure Visibility Wind Dir Wind Speed Gust Speed Precip Events Conditions
12:53 AM 28.0 °F 24.2 °F 19.0 °F 69% 30.02 in 10.0 mi WNW 3.5 mph - N/A   Clear
1:53 AM 28.0 °F 20.0 °F 19.0 °F 69% 30.02 in 10.0 mi WNW 8.1 mph - N/A   Clear
2:53 AM 28.0 °F 24.2 °F 19.0 °F 69% 30.03 in 10.0 mi West 3.5 mph - N/A   Clear
3:53 AM 28.0 °F 19.3 °F 21.0 °F 75% 30.03 in 10.0 mi WSW 9.2 mph - N/A   Clear
4:53 AM 28.9 °F 19.8 °F 21.0 °F 72% 30.05 in 10.0 mi SW 10.4 mph - N/A   Clear
5:53 AM 34.0 °F 25.5 °F 23.0 °F 64% 30.03 in 10.0 mi SW 11.5 mph - N/A   Clear
6:53 AM 34.0 °F 25.0 °F 23.0 °F 64% 30.08 in 10.0 mi SW 12.7 mph - N/A   Clear
7:53 AM 33.1 °F 24.9 °F 23.0 °F 66% 30.11 in 10.0 mi WSW 10.4 mph - N/A   Clear
8:53 AM 46.0 °F 43.1 °F 26.1 °F 46% 30.07 in 10.0 mi WSW 5.8 mph - N/A   Clear
9:53 AM 55.0 °F - 24.1 °F 30% 30.02 in 10.0 mi SSW 20.7 mph 24.2 mph N/A   Clear
10:53 AM 57.9 °F - 24.1 °F 27% 29.99 in 10.0 mi SSW 16.1 mph - N/A   Clear
11:53 AM 59.0 °F - 24.1 °F 26% 29.94 in 10.0 mi South 12.7 mph - N/A   Clear
12:53 PM 60.1 °F - 19.9 °F 21% 29.90 in 10.0 mi South 13.8 mph - N/A   Clear
1:53 PM 61.0 °F - 19.0 °F 20% 29.87 in 10.0 mi South 10.4 mph - N/A   Clear
2:53 PM 59.0 °F - 19.9 °F 22% 29.87 in 10.0 mi SSW 6.9 mph - N/A   Clear
3:53 PM 48.9 °F - 21.0 °F 33% 29.89 in 10.0 mi South 11.5 mph - N/A   Clear
6:53 PM 37.0 °F - 17.1 °F 44% 29.89 in 10.0 mi Calm Calm - N/A   Clear
7:53 PM 34.0 °F 29.8 °F 17.1 °F 50% 29.91 in 10.0 mi SW 4.6 mph - N/A   Clear
8:53 PM 30.9 °F 25.2 °F 18.0 °F 59% 29.86 in 10.0 mi SSW 5.8 mph - N/A   Clear
9:53 PM 37.9 °F 32.7 °F 19.0 °F 47% 29.81 in 10.0 mi SSW 6.9 mph - N/A   Clear
10:53 PM 35.1 °F 29.3 °F 19.0 °F 52% 29.79 in 10.0 mi West 6.9 mph - N/A   Clear